Tracking 31030 objects as of 16-Jul-2025
HD Live streaming from Space Station
objects crossing your sky now

CZ-6A DEB

Track CZ-6A DEB now!
10-day predictions


NORAD ID: 54290
Int'l Code: 2022-151AH
Perigee: 704.9 km
Apogee: 882.9 km
Inclination: 98.6 °
Period: 100.6 minutes
Semi major axis: 7164 km
RCS: Unknown
Launch date: November 11, 2022
Source: People's Republic of China (PRC)
Launch site: Taiyaun Space Center, China (TSC)

Note: This is SATELLITE DEBRIS
Your satellite tracking list
Your tracking list is empty




NASA's NSSDC Master Catalog

Two Line Element Set (TLE):
1 54290U 22151AH  25197.48009770  .00000316  00000-0  12525-3 0  9998
2 54290  98.5742 203.7953 0124234 325.3062  34.0063 14.31496442139178
Source of the keplerian elements: AFSPC